Tracking 30685 objects as of 18-Jun-2025
HD Live streaming from Space Station
objects crossing your sky now

STARLINK-30447

Track STARLINK-30447 now!
10-day predictions
STARLINK-30447 is classified as:


NORAD ID: 57874
Int'l Code: 2023-144L
Perigee: 565.4 km
Apogee: 567.0 km
Inclination: 43.0 °
Period: 95.8 minutes
Semi major axis: 6937 km
RCS: Unknown
Launch date: September 16, 2023
Source: United States (US)
Launch site: AIR FORCE EASTERN TEST RANGE (AFETR)
Your satellite tracking list
Your tracking list is empty




NASA's NSSDC Master Catalog

Two Line Element Set (TLE):
1 57874U 23144L   25169.51051852 -.00000621  00000-0 -30913-4 0  9996
2 57874  43.0030 257.4777 0001185 271.8478  88.2228 15.02533710 98176
Source of the keplerian elements: AFSPC